Preview of NWS' New Version of Forecast
This preview is not operational and should not be used for support decisions.

Regional Weather Roundup (RWR)

Issued by National Weather Service (NWS)

                            
000
ASUS42 KTBW 161817
RWRFL 
FLORIDA REGIONAL WEATHER ROUNDUP
NATIONAL WEATHER SERVICE TAMPA BAY RUSKIN FL
100 PM EST SAT FEB 16 2019

NOTE: "FAIR" INDICATES FEW OR NO CLOUDS BELOW 12,000 FEET WITH NO
SIGNIFICANT WEATHER AND/OR OBSTRUCTIONS TO VISIBILITY.

FLZ001>010-012>015-112-114-115-161900-
PANHANDLE FLORIDA
  
CITY           SKY/WX    TMP DP  RH WIND       PRES   REMARKS
PENSACOLA      PTSUNNY   76  63  64 VRB5      29.82F                  
PENSACOLA NAS  PTSUNNY   74  65  73 VRB7      29.82F                  
MILTON NAS     PTSUNNY   74  63  68 NW7       29.82                   
CRESTVIEW      PTSUNNY   74  60  61 W3        29.82F                  
DUKE FIELD     FAIR      74  62  64 SW5       29.80F                  
VALPARAISO     PTSUNNY   71  65  81 S12       29.81F                  
MARY ESTHER    CLOUDY    70  64  83 S12       29.81                   
PANAMA CITY    CLOUDY    67  66  97 SW9       29.83F FOG              
TYNDALL AFB    CLOUDY    71  65  81 SW14      29.84S                  
APALACHICOLA   PTSUNNY   71  64  78 SW9       29.85F                  

STATION/POSITION SKY/WX   TEMP    WIND        PRES    WAVE   SWELL
                          AIR SEA DIR/SP/G            HT/PER HT/PER
                          (F)     (DEG/KT/KT) (MB)    (FT/S) (FT/S)
30.1N   87.6W              63     240/  6/  8 1010.8F   3/ 6   2/ 6
29.2N   88.2W                     220/  8/ 10 1011.0F   2/ 5   2/ 5
PANAMA CITY BEAC           64 62  200/  8/  9 1010.7F
TOWER C                    68     230/ 15/ 15 1011.1F

$$
FLZ011-016>038-118-127-128-134-139-239-161900-
NORTH FLORIDA
  
CITY           SKY/WX    TMP DP  RH WIND       PRES   REMARKS
MARIANNA       CLOUDY    73  63  70 W8        29.81F                  
TALLAHASSEE    PTSUNNY   76  63  64 W13       29.82F                  
PERRY          CLOUDY    74  65  72 W15G21    29.87S                  
LIVE OAK       CLOUDY    73  63  68 SW9       29.84F                  
CROSS CITY     PTSUNNY   75  64  68 SW14      29.87F                  
LAKE CITY      CLOUDY    73  61  64 SW15G21   29.84F                  
GAINESVILLE    CLOUDY    77  61  57 W18G24    29.87F                  
WILLISTON        N/A    N/A N/A N/A MISG        N/A                   
PALATKA        PTSUNNY   77  61  57 W16       29.86F                  
MAYPORT NAS    FAIR      74  62  66 SW12      29.82F                  
JACKSONVILLE   PTSUNNY   76  60  57 W15       29.82F                  
JAX NAS        PTSUNNY   75  61  61 SW15      29.84F                  
JAX CECIL      PTSUNNY   77  63  61 W13G20    29.84F                  
FERNANDINA BEA PTSUNNY   74  62  64 W14G21    29.82F                  
ST AUGUSTINE   PTSUNNY   75  61  61 W14G22    29.84F                  
PALM COAST     PTSUNNY   75  61  60 SW12G23   29.87F                  

STATION/POSITION SKY/WX   TEMP    WIND        PRES    WAVE   SWELL
                          AIR SEA DIR/SP/G            HT/PER HT/PER
                          (F)     (DEG/KT/KT) (MB)    (FT/S) (FT/S)
SHELL POINT      NOT AVBL
KEATON BEACH               64     200/ 11/ 12 1011.4F
CEDAR KEY                  65     220/  8/ 11 1012.3F
FERNANDINA                 73 60  230/  7/ 12 1010.6F
30.7N   81.3W                 58                N/A     2/ 8
MAYPORT                    72 60  240/ 14/ 18 1009.9F
31.4N   80.9W              59 57  200/ 12/ 14 1009.4F   3/ 8   2/ 8
ST AUGUSTINE               75 60  250/ 14/ 19 1010.7F

$$
FLZ040-043>046-052-053-057-058-063-144-161900-
INTERIOR CENTRAL FLORIDA
  
CITY           SKY/WX    TMP DP  RH WIND       PRES   REMARKS
OCALA          PTSUNNY   76  62  62 SW16G22   29.89F                  
LEESBURG       PTSUNNY   76  61  59 SW10G16   29.89F                  
SANFORD        PTSUNNY   78  61  55 SW15G21   29.88F                  
ORLANDO EXEC   FAIR      77  60  55 W16G22    29.88F                  
ORLANDO INTL   PTSUNNY   77  60  55 SW14      29.88F                  
KISSIMMEE      CLOUDY    79  63  57 SW14      29.90F                  
WINTER HAVEN   PTSUNNY   81  62  52 W14       29.90F                  
LAKELAND       PTSUNNY   77  61  57 W13G20    29.91F                  
BARTOW         PTSUNNY   79  63  57 W14G21    29.89F                  
SEBRING        MOCLDY    81  60  49 SW17G24   29.91F                  
OKEECHOBEE     PTSUNNY   77  59  53 W9        29.93F                  

$$
FLZ041-047-054-059-064-141-147-161900-
EAST CENTRAL FLORIDA
  
CITY           SKY/WX    TMP DP  RH WIND       PRES   REMARKS
ORMOND BEACH   MOSUNNY   75  61  60 SW16G23   29.87F                  
DAYTONA BEACH  PTSUNNY   76  63  64 W13       29.87F                  
DELAND         PTSUNNY   75  61  60 W12       29.88S                  
NEW SMYRNA BEA PTSUNNY   75  59  57 W16       29.90S                  
JFK SPACE CTR  FAIR      77 N/A N/A W14G21    29.87F                  
TITUSVILLE     PTSUNNY   81  59  47 SW21      29.89F                  
CAPE CANAVERAL FAIR      78  61  56 W14G20    29.87F                  
PATRICK AFB    FAIR      78  61  54 W10       29.88F                  
MELBOURNE      FAIR      80  59  48 W16G23    29.88F                  
VERO BEACH     FAIR      80  59  48 SW12G18   29.89F                  
FT PIERCE      FAIR      79  57  46 SW16G24   29.90F                  
STUART         MOSUNNY   81  57  44 W12G24    29.94F                  

STATION/POSITION SKY/WX   TEMP    WIND        PRES    WAVE   SWELL
                          AIR SEA DIR/SP/G            HT/PER HT/PER
                          (F)     (DEG/KT/KT) (MB)    (FT/S) (FT/S)
28.5N   80.2W              66     180/  8/  8 1012.8F   3/ 8   2/ 8
28.9N   78.5W              72 75  240/ 17/ 21 1012.3F   4/ 8   3/ 8
TRIDENT PIER               74 65  220/ 12/ 16 1013.0F
28.4N   80.5W                 64                N/A     1/ 8

$$
FLZ050-056-061-142-242-148-248-149-249-151-251-155-255-
160-260-161900-
WEST CENTRAL FLORIDA
  
CITY           SKY/WX    TMP DP  RH WIND       PRES   REMARKS
CRYSTAL RIVER  CLOUDY    73  64  73 SW8G17    29.91S                  
INVERNESS      CLOUDY    77  64  65 SW7G17    29.90S                  
BROOKSVILLE    PTSUNNY   78  62  57 W16       29.91F                  
CLEARWATER AIR CLOUDY    73  64  73 SW9G18    29.90F                  
ST PETE CLEARW CLOUDY    75  64  68 SW16      29.91F                  
TAMPA INTL     PTSUNNY   73  65  75 S12       29.91F                  
TAMPA EXEC     CLOUDY    77  64  65 SW14G21   29.91F                  
PLANT CITY     PTSUNNY   81  63  54 W17       29.93F                  
MACDILL AFB    PTSUNNY   74  66  75 SW15      29.91F                  
PETER O KNIGHT CLOUDY    77  68  73 SW14      29.91F                  
ST PETERSBURG  PTSUNNY   73  64  73 SW16G23   29.89F                  
SARASOTA       FAIR      77  63  61 SW17      29.90F                  
VENICE         FAIR      75  63  64 S14G22    29.93F                  

STATION/POSITION SKY/WX   TEMP    WIND        PRES    WAVE   SWELL
                          AIR SEA DIR/SP/G            HT/PER HT/PER
                          (F)     (DEG/KT/KT) (MB)    (FT/S) (FT/S)
27.3N   84.2W                 71                N/A     2/ 5
CLEARWATER BEACH           67 66  190/ 15/ 17 1013.0F
MIDDLE TAMPA BAY           71     220/ 13/ 14 1013.0F
VENICE                     68 67  170/ 11/ 12   N/A

$$
FLZ066-069-070-075>078-162-262-165-265-161900-
SOUTHWEST FLORIDA AND KEYS
  
CITY           SKY/WX    TMP DP  RH WIND       PRES   REMARKS
PUNTA GORDA    FAIR      77  61  57 SW15      29.94F                  
FT MYERS       FAIR      78  59  51 SW10      29.93F                  
SOUTHWEST INTL FAIR      78  61  55 SW14      29.93F                  
NAPLES         FAIR      78  61  55 SW10      29.93F                  
MARCO ISLAND   CLOUDY    78  60  53 S7        29.95F                  
IMMOKALEE      CLOUDY    82  61  47 VRB5      29.91F                  
MARATHON       FAIR      86  68  54 S6        29.93F                  
KEY WEST NAS   FAIR      83  67  58 S15       29.94F                  
KEY WEST INTL  FAIR      80  68  66 S13       29.94F                  

STATION/POSITION SKY/WX   TEMP    WIND        PRES    WAVE   SWELL
                          AIR SEA DIR/SP/G            HT/PER HT/PER
                          (F)     (DEG/KT/KT) (MB)    (FT/S) (FT/S)
NAPLES                     74 70  170/  6/  6 1013.9F
26.0N   85.6W              78 80  210/ 12/ 16 1012.5
DRY TORTUGAS               76     220/  8/ 10 1013.6F
SAND KEY                   76                 1014.1F
SOMBRERO KEY               77                 1013.3F
LONG KEY                   76 74  160/ 11/ 12 1013.2F
MOLASSES REEF              76 77  170/ 11/ 12 1015.0F

$$
FLZ067-068-071>074-168-172>174-161900-
SOUTHEAST FLORIDA 
  
CITY           SKY/WX    TMP DP  RH WIND       PRES   REMARKS
W PALM BEACH   FAIR      80  58  46 SW12G17   29.93F                  
BOCA RATON     PTSUNNY   81  61  50 S8        29.93F                  
FT LAUDER-EXEC FAIR      81  61  50 SW12G17   29.92F                  
FT LAUDERDALE  PTSUNNY   79  64  60 S10       29.92F                  
POMPANO BEACH  FAIR      79  62  56 S14       29.92F                  
PEMBROKE PINES CLOUDY    80  61  52 VRB7      29.94                   
OPA LOCKA      PTSUNNY   81  62  52 S10       29.93F                  
MIAMI          PTSUNNY   80  65  59 SE10      29.93F                  
WEST KENDALL   PTSUNNY   80  64  58 SE12      29.93F                  
HOMESTEAD      PTSUNNY   79  66  65 E8        29.92F                  

STATION/POSITION SKY/WX   TEMP    WIND        PRES    WAVE   SWELL
                          AIR SEA DIR/SP/G            HT/PER HT/PER
                          (F)     (DEG/KT/KT) (MB)    (FT/S) (FT/S)
VIRGINIA KEY               76 75  130/  7/ 12 1013.3F
LAKE WORTH                 74 76  200/ 13/ 15 1014.6F
FOWEY ROCKS                76 75  150/ 10/ 11 1015.1F
SETTLEMENT POINT           75     230/  9/ 10 1013.9F

$$